sat.trackr.live / text

‹ back to catalog

STARLINK-1573

NORAD 46061 · 2020-055AL

PAYLOAD ACTIVE UNKNOWN

§ Identity

Operator
Country
US
Launch date
2020-08-07
Launch site
AFETR
Launch vehicle
Mass (kg)
RCS (m²)

Purposes: comms

External: N2YO · Heavens-Above · Gunter

§ Orbital elements

Epoch: 2026-09-03T14:29:13.256160Z

Period
94.01 min
Inclination
53.1613°
Eccentricity
0.0000879
Mean motion
15.31704075 rev/d
Perigee alt
470.1 km
Apogee alt
471.3 km
Semi-major
6,848.9 km
B*
8.5100e-5
RAAN
5.9394°
Arg perigee
86.1406°
Mean anomaly
273.9696°
Rev number
33,633

§ Raw data

STARLINK-15731 46061U 20055AL  26246.60362565  .00002277  00000+0  85100-4 0  99972 46061  53.1613   5.9394 0000879  86.1406 273.9696 15.31704075336330

JSON: /api/v1/satellites/46061 · /tle

For live sub-satellite position, see the globe view (requires WebGL).

§ Visibility from observer

Set your observer location to see the next 7 days of passes ≥ 10°. The values pass through the URL so the page stays shareable.

No JS? Fill the form by hand. The geolocation button needs JavaScript.